Terminal Aerodrome Forecast
Issued by NWS Billings, MT

Home | Current Version | Previous Version | Text Only | Print | Product List | Glossary On
Versions: 1 2 3 4 5 6 7 8 9 10 11 12 13 14 15 16 17 18 19 20 21 22 23 24 25 26 27 28 29 30 31 32 33 34 35 36 37 38 39 40 41 42 43 44 45 46 47 48 49 50
000
FTUS45 KBYZ 262331
TAFSHR
TAF
KSHR 262331Z 2700/2724 17003KT 5SM -SN BR BKN035 OVC050
     FM270300 VRB04KT P6SM SCT040 BKN080
     FM270900 26005KT P6SM BKN080
     FM271500 25005KT P6SM SCT100=

USA.gov is the U.S. government's official web portal to all federal, state and local government web resources and services.